Total_Precipitation_Accumulation
0.01 0.00 0.00 0.01 0.01 0.00 0.00 0.01 0.02 0.05 0.07 0.09 0.11 0.13 0.13 0.10 0.08 0.08 0.07 0.07 0.07 0.09 0.12 0.17 0.20 0.23 0.26 0.26 0.18 0.10 0.08 0.07 0.05 0.03 0.02 0.02 0.02 0.02 0.03 0.03 0.02 0.03 0.01
0.01 0.00 0.01 0.01 0.02 0.01 0.00 0.01 0.02 0.04 0.06 0.06 0.07 0.07 0.08 0.08 0.07 0.07 0.08 0.09 0.10 0.12 0.12 0.14 0.18 0.22 0.22 0.19 0.14 0.09 0.06 0.04 0.03 0.04 0.06 0.11 0.16 0.12 0.10 0.09 0.05 0.06 0.01
0.01 0.00 0.01 0.01 0.02 0.02 0.02 0.02 0.02 0.04 0.07 0.08 0.07 0.06 0.05 0.04 0.04 0.05 0.07 0.10 0.14 0.16 0.15 0.14 0.15 0.16 0.16 0.13 0.08 0.05 0.02 0.02 0.03 0.06 0.15 0.27 0.36 0.27 0.23 0.21 0.20 0.12 0.03
0.01 0.00 0.00 0.01 0.02 0.04 0.03 0.04 0.03 0.05 0.08 0.12 0.12 0.11 0.07 0.04 0.04 0.06 0.07 0.10 0.13 0.15 0.13 0.11 0.10 0.10 0.08 0.05 0.04 0.02 0.01 0.01 0.02 0.07 0.14 0.21 0.32 0.29 0.23 0.25 0.32 0.30 0.21
0.02 0.01 0.00 0.01 0.02 0.05 0.06 0.06 0.06 0.07 0.11 0.15 0.17 0.17 0.12 0.06 0.04 0.07 0.10 0.11 0.12 0.15 0.17 0.14 0.09 0.06 0.04 0.03 0.03 0.01 0.01 0.01 0.03 0.12 0.25 0.35 0.41 0.39 0.28 0.25 0.31 0.37 0.36
0.01 0.00 0.00 0.01 0.02 0.05 0.08 0.08 0.09 0.10 0.13 0.17 0.21 0.20 0.13 0.06 0.05 0.08 0.12 0.15 0.17 0.20 0.25 0.22 0.20 0.13 0.08 0.05 0.03 0.02 0.02 0.03 0.08 0.24 0.34 0.42 0.43 0.37 0.24 0.20 0.23 0.33 0.36
0.01 0.00 0.00 0.02 0.03 0.06 0.08 0.07 0.08 0.11 0.13 0.18 0.21 0.17 0.11 0.06 0.04 0.07 0.14 0.17 0.21 0.24 0.24 0.21 0.19 0.14 0.12 0.10 0.08 0.09 0.10 0.13 0.17 0.29 0.31 0.32 0.31 0.22 0.16 0.13 0.13 0.15 0.20
0.01 0.01 0.00 0.01 0.03 0.10 0.15 0.10 0.06 0.08 0.10 0.15 0.19 0.16 0.10 0.08 0.09 0.13 0.15 0.18 0.21 0.19 0.16 0.17 0.16 0.13 0.15 0.17 0.17 0.18 0.18 0.20 0.19 0.20 0.19 0.19 0.19 0.11 0.12 0.14 0.09 0.07 0.08
0.06 0.05 0.02 0.02 0.02 0.05 0.06 0.05 0.04 0.04 0.07 0.12 0.17 0.20 0.16 0.13 0.20 0.24 0.21 0.21 0.25 0.20 0.16 0.17 0.18 0.15 0.19 0.23 0.19 0.16 0.14 0.12 0.08 0.06 0.06 0.06 0.06 0.04 0.04 0.05 0.05 0.04 0.03
0.29 0.38 0.16 0.09 0.04 0.02 0.02 0.01 0.01 0.01 0.02 0.05 0.08 0.12 0.13 0.15 0.19 0.21 0.17 0.16 0.19 0.14 0.10 0.10 0.12 0.12 0.10 0.08 0.05 0.03 0.02 0.02 0.01 0.00 0.01 0.02 0.01 0.01 0.00 0.01 0.01 0.03 0.02
0.52 0.71 0.49 0.18 0.04 0.01 0.02 0.01 0.00 0.00 0.00 0.01 0.02 0.04 0.09 0.18 0.21 0.19 0.12 0.09 0.07 0.04 0.02 0.02 0.02 0.01 0.01 0.01 0.00 0.00 0.00 0.00 0.00 0.00 0.00 0.01 0.01 0.00 0.00 0.00 0.00 0.00 0.01
0.63 0.60 0.46 0.11 0.03 0.01 0.01 0.01 0.02 0.01 0.01 0.03 0.04 0.04 0.11 0.18 0.20 0.13 0.06 0.03 0.01 0.00 0.00 0.00 0.00 0.00 0.00 0.00 0.00 0.00 0.00 0.00 0.00 0.00 0.00 0.00 0.00 0.00 0.00 0.00 0.00 0.00 0.00
0.56 0.31 0.16 0.10 0.06 0.03 0.01 0.01 0.02 0.02 0.02 0.02 0.03 0.04 0.08 0.08 0.05 0.02 0.01 0.00 0.00 0.00 0.00 0.00 0.00 0.00 0.00 0.00 0.00 0.00 0.00 0.00 0.00 0.00 0.00 0.00 0.00 0.00 0.00 0.00 0.00 0.00 0.00
0.30 0.22 0.12 0.10 0.06 0.04 0.02 0.01 0.02 0.02 0.01 0.01 0.02 0.02 0.04 0.05 0.03 0.02 0.02 0.01 0.01 0.00 0.00 0.00 0.00 0.00 0.00 0.00 0.00 0.00 0.00 0.00 0.00 0.00 0.00 0.00 0.00 0.00 0.00 0.00 0.00 0.01 0.01
0.27 0.27 0.14 0.10 0.07 0.04 0.02 0.01 0.01 0.01 0.01 0.01 0.00 0.00 0.01 0.02 0.03 0.02 0.02 0.01 0.00 0.01 0.00 0.00 0.00 0.00 0.00 0.00 0.00 0.00 0.00 0.00 0.00 0.00 0.00 0.00 0.00 0.00 0.00 0.00 0.01 0.01 0.01
0.45 0.43 0.19 0.08 0.03 0.02 0.01 0.01 0.01 0.01 0.02 0.03 0.03 0.03 0.02 0.04 0.05 0.04 0.03 0.04 0.02 0.01 0.01 0.01 0.00 0.00 0.00 0.00 0.00 0.00 0.00 0.00 0.00 0.00 0.00 0.00 0.00 0.00 0.01 0.01 0.01 0.01 0.01
0.61 0.57 0.24 0.07 0.02 0.01 0.01 0.01 0.01 0.02 0.03 0.05 0.06 0.05 0.03 0.03 0.04 0.03 0.04 0.04 0.02 0.01 0.01 0.01 0.01 0.01 0.01 0.01 0.00 0.01 0.01 0.01 0.01 0.01 0.01 0.01 0.02 0.02 0.02 0.02 0.03 0.03 0.02
0.93 0.91 0.38 0.08 0.02 0.01 0.01 0.01 0.01 0.02 0.03 0.03 0.03 0.02 0.01 0.01 0.02 0.03 0.03 0.03 0.02 0.02 0.02 0.03 0.03 0.02 0.03 0.03 0.02 0.03 0.03 0.04 0.04 0.04 0.05 0.05 0.05 0.06 0.05 0.05 0.04 0.04 0.03
1.36 1.19 0.47 0.13 0.06 0.04 0.03 0.02 0.02 0.02 0.02 0.02 0.02 0.02 0.01 0.01 0.01 0.01 0.02 0.03 0.02 0.03 0.04 0.06 0.09 0.08 0.08 0.08 0.07 0.07 0.05 0.05 0.06 0.06 0.06 0.06 0.06 0.06 0.05 0.06 0.05 0.04 0.04
1.79 1.35 0.61 0.34 0.22 0.11 0.06 0.04 0.04 0.03 0.03 0.03 0.03 0.02 0.02 0.01 0.02 0.02 0.03 0.04 0.03 0.05 0.08 0.10 0.11 0.09 0.08 0.06 0.04 0.04 0.04 0.05 0.05 0.05 0.04 0.04 0.04 0.04 0.03 0.03 0.03 0.03 0.04
0.83 0.77 0.62 0.49 0.35 0.26 0.20 0.13 0.09 0.06 0.05 0.04 0.04 0.05 0.06 0.05 0.06 0.07 0.06 0.07 0.06 0.06 0.06 0.05 0.05 0.05 0.04 0.03 0.02 0.02 0.01 0.01 0.02 0.02 0.01 0.01 0.01 0.01 0.01 0.01 0.01 0.01 0.02
0.49 0.60 0.61 0.53 0.43 0.34 0.27 0.20 0.16 0.12 0.10 0.10 0.12 0.15 0.13 0.12 0.11 0.09 0.08 0.05 0.05 0.04 0.03 0.03 0.03 0.02 0.01 0.01 0.01 0.01 0.00 0.00 0.00 0.00 0.00 0.00 0.00 0.00 0.00 0.00 0.00 0.00 0.00
0.37 0.53 0.58 0.50 0.41 0.34 0.29 0.25 0.24 0.21 0.18 0.20 0.23 0.24 0.19 0.16 0.12 0.09 0.06 0.03 0.02 0.01 0.01 0.01 0.01 0.01 0.01 0.01 0.01 0.02 0.02 0.01 0.00 0.00 0.00 0.00 0.00 0.00 0.00 0.00 0.00 0.00 0.00
0.39 0.48 0.49 0.42 0.36 0.33 0.31 0.28 0.28 0.27 0.26 0.26 0.20 0.19 0.15 0.09 0.05 0.03 0.02 0.01 0.01 0.00 0.00 0.00 0.01 0.01 0.01 0.01 0.00 0.01 0.01 0.01 0.02 0.01 0.00 0.00 0.00 0.00 0.00 0.00 0.00 0.00 0.00
0.33 0.38 0.39 0.37 0.35 0.31 0.28 0.25 0.24 0.23 0.21 0.15 0.09 0.07 0.04 0.02 0.01 0.00 0.00 0.01 0.01 0.00 0.00 0.00 0.00 0.00 0.00 0.00 0.00 0.01 0.01 0.01 0.02 0.04 0.02 0.01 0.00 0.00 0.00 0.00 0.00 0.00 0.00
0.20 0.24 0.27 0.29 0.30 0.27 0.23 0.21 0.17 0.14 0.11 0.07 0.04 0.03 0.01 0.00 0.00 0.00 0.00 0.00 0.00 0.00 0.00 0.00 0.00 0.01 0.01 0.02 0.02 0.02 0.02 0.03 0.03 0.04 0.05 0.03 0.01 0.00 0.00 0.00 0.00 0.00 0.01